STARLINK-1597, 46142

Orbit data source: Space-Track

STARLINK-1597, 46142 is a payload satellite owned by SpaceX/Seattle (US) in LEO that was launched on Tue, 18 Aug 2020 UTC via an FALCON 9 launch vehicle from the Air Force Eastern Test Range (AFETR). Payload-class satellites include a variety of spacecraft equipped with specific instruments for various scientific and technological missions. These include communications satellites like Starlink; space stations such as the ISS; scientific satellites like the Hubble; Earth observation satellites from companies like Planet Labs, Umbra, and HawkEye 360; GPS; miniature CubeSats for education and research; and military/defense satellites.

Loading next visibility...
Identifier
46142, 2020-057AB
Orbit
LEO
Country
Flag of USUS
Related business
Manufacturer
SpaceX/Seattle
Mission
Operational Commercial Communications
Bus & Motor
STARLINK, Unknown motor
Mass
260 kg wet, ~248 kg dry
Launch date (UTC)
2020-08-18 (5 years ago)
Launch vehicle
FALCON 9
Launch site
Air Force Eastern Test Range (AFETR)
Object type
Payload
Rocket body
Debris
Shape & HBR
Box + 1 Pan, 10.1 m
Radar Cross Section
13.562 m², Large (>1 m²)

Expand to show TLE details & history
Last TLE update: 7 hours ago

TLE from 7 hours ago
0 STARLINK-1597
1 46142U 20057AB  25299.69065032  .00001745  00000-0  13605-3 0  9994
2 46142  53.0537 198.1643 0002275  88.3456 271.7794 15.06397456285866
Epoch: 2025-10-26T16:34Z
TLE epoch observation values (Epoch: 2025-10-26T16:34:32.187Z)
Latitude
0.00001°
Longitude
-85.77303°
Altitude
548.05 km
Speed
7.589 km/s
True Right ascension
13h 12m 39s
True Declination
0° 00' 00"
Sunlit
Object was in daylight at epoch
Visualization orbit readout
Latitude
Unknown
Longitude
Unknown
Altitude
Unknown
Speed
Unknown
Apparent Right ascension
Unknown
Apparent Declination
Unknown
Sunlit
N/A
Visualization observer readout
Local Sidereal Time
18:36:48
Azimuth
Unknown
Elevation
Unknown
Doppler factor
Unknown
Orbital elements
Apogee altitude
549.066 km
Perigee altitude
545.915 km
Semi-major axis
6,925.627 km
Eccentricity
0.00023
Inclination
53.0537°
RAAN
198.1643°
Arg. of periapsis
88.3456°
True anomaly
271.75334°
Mean anomaly
271.7794°
Eccentric anomaly
271.76637°
Mean motion
3.76578 °/min
Orbital period
95.6 mins
BSTAR
0.00013605
Loading maneuver chart data...
Computing Atmospheric mass density...

Documentation

Showing up to 5 results
|